Location: Poughquag
(41.6090°N, 73.6820°W)
Time: 02:39:38
(UTC-04:00)

Vanguard 1 - Pass Details

Date: 30 May 2020
Orbit: 650 x 3833 km, 34.2° (Epoch: 06 July)

Event Time Altitude Azimuth Distance (km) Brightness Sun altitude
Rises 10:08:56 0° 271° (W) 7,311 14.1 50.6°
Reaches altitude 10° 10:13:28 10° 269° (W) 6,542 14.0 51.4°
Maximum altitude 10:36:10 67° 194° (SSW) 3,970 14.2 55.3°
Drops below altitude 10° 10:55:54 10° 117° (ESE) 5,803 14.7 58.6°
Sets 10:59:38 0° 115° (ESE) 6,488 14.7 59.2°
